Regional Weather Roundup
Issued by NWS

Home | Current Version | Previous Version | Graphics & Text | Print | Product List | Glossary On
Versions: 1 2 3 4 5 6 7 8 9 10 11 12 13 14 15 16 17 18 19 20 21 22 23 24 25 26 27 28 29 30 31 32 33 34 35 36 37 38 39 40 41 42 43 44 45 46 47 48 49 50
000
ASUS43 KOAX 290302
RWRNE

WEATHER ROUNDUP FOR NEBRASKA
NATIONAL WEATHER SERVICE OMAHA NE
1000 PM CDT SAT MAR 28 2015

NOTES: SATELLITE DATA IS BEING USED TO AUGMENT CLOUD COVER ABOVE
       12000 FEET.
       "FAIR" INDICATES FEW OR NO CLOUDS BELOW 12,000 FEET WITH NO
       SIGNIFICANT WEATHER AND/OR OBSTRUCTIONS TO VISIBILITY.

  * THESE STATIONS DO NOT REPORT WEATHER SUCH AS RAIN...SNOW OR FOG.

NEZ001>004-019>022-054>056-290400-
NEBRASKA PANHANDLE

CITY           SKY/WX    TMP DP  RH WIND       PRES   REMARKS
SCOTTSBLUFF    PTCLDY    71  22  15 W18       29.79R
ALLIANCE       PTCLDY    66  24  20 W14       29.75R
CHADRON        PTCLDY    67  31  26 W21G26    29.72R
KIMBALL        PTCLDY    65  25  21 W18       29.88R
SIDNEY         MOCLDY    69  24  18 W16       29.84R
$$

NEZ057>060-069>072-079>082-290400-
SOUTHWEST NEBRASKA

CITY           SKY/WX    TMP DP  RH WIND       PRES   REMARKS
NORTH PLATTE   PTCLDY    63  36  36 SE14G20   29.77F
IMPERIAL         N/A     68  22  17 S10       29.78R
LEXINGTON      CLEAR     57  37  46 SE17      29.81F
MCCOOK         PTCLDY    65  36  34 S16       29.80R
OGALLALA       MOCLDY    60  29  30 W8        29.76R
$$

NEZ005>010-023>029-035>040-094-290400-
NORTH CENTRAL NEBRASKA

CITY           SKY/WX    TMP DP  RH WIND       PRES   REMARKS
VALENTINE      PTCLDY    65  36  34 S33G41    29.61F
AINSWORTH      CLEAR     60  35  39 S26G35    29.68F
BROKEN BOW     CLEAR     57  36  45 SE12      29.81S
O`NEILL        CLEAR     52  36  54 S21G26    29.77F
ORD            CLEAR     53  33  46 SE16      29.81F
THEDFORD       PTCLDY    62  36  38 S22G32    29.73F
$$

NEZ041-046>049-061>064-073>077-083>087-290400-
SOUTH CENTRAL NEBRASKA

CITY           SKY/WX    TMP DP  RH WIND       PRES   REMARKS
GRAND ISLAND   CLEAR     50  34  54 SE17G25   29.88F
AURORA         CLEAR     48  33  55 SE16      29.90S
HASTINGS       CLEAR     52  35  52 SE18      29.88F
HEBRON         CLEAR     49  33  53 SE13      29.95F
HOLDREGE       CLEAR     55  36  49 SE20G25   29.84S
KEARNEY *      CLEAR     54  36  50 SE17G23   29.85F
YORK           PTCLDY    46  36  66 SE16      29.92F
$$

NEZ011>018-030>034-042>045-290400-
NORTHEAST NEBRASKA

CITY           SKY/WX    TMP DP  RH WIND       PRES   REMARKS
NORFOLK        CLEAR     48  34  58 SE23G30   29.87F
ALBION         CLEAR     47  33  58 SE18      29.87F
BLAIR          CLEAR     46  32  57 SE18      29.98S
COLUMBUS *     CLEAR     46  32  57 SE16      29.94F
FREMONT        CLEAR     47  33  57 SE17G24   29.98F
TEKAMAH        CLEAR     44  30  57 SE14      29.98S
WAYNE          CLEAR     45  33  62 S21       29.90F
$$

NEZ050>053-065>068-078-088>093-290400-
SOUTHEAST NEBRASKA

CITY           SKY/WX    TMP DP  RH WIND       PRES   REMARKS
LINCOLN        CLEAR     48  34  58 S18G25    29.99F
OMAHA EPPLEY   CLEAR     46  32  58 S21       30.01S
BEATRICE       CLEAR     46  33  60 SE15G21   30.00S
FALLS CITY     CLEAR     42  31  64 SE9       30.06S
NEBRASKA CITY  CLEAR     44  30  57 SE13      30.04R
PLATTSMOUTH    FAIR      44  31  59 SE15G21   30.02S
$$

NEZ044-045-051>053-067-290400-
OMAHA AREA

CITY           SKY/WX    TMP DP  RH WIND       PRES   REMARKS
OMAHA EPPLEY   CLEAR     46  32  58 S21       30.01S
BLAIR          CLEAR     46  32  57 SE18      29.98S
FREMONT        CLEAR     47  33  57 SE17G24   29.98F
MILLARD        CLEAR     46  33  60 SE13      30.01R
OFFUTT AFB     CLEAR     44  32  63 SE10      30.02R
PLATTSMOUTH    FAIR      44  31  59 SE15G21   30.02S
WAHOO          FAIR      44  32  63 SE13      29.98F
$$



USA.gov is the U.S. government's official web portal to all federal, state and local government web resources and services.